TimeEDT,TemperatureF,Dew PointF,Humidity,Sea Level PressureIn,VisibilityMPH,Wind Direction,Wind SpeedMPH,Gust SpeedMPH,PrecipitationIn,Events,Conditions,WindDirDegrees,DateUTC
12:56 AM,68.0,63.0,84,30.12,10.0,SSW,4.6,-,N/A,,Clear,200,2012-04-18 04:56:00
1:56 AM,68.0,63.0,84,30.08,10.0,South,3.5,-,N/A,,Clear,190,2012-04-18 05:56:00
2:56 AM,68.0,63.0,84,30.07,10.0,South,3.5,-,N/A,,Clear,190,2012-04-18 06:56:00
3:56 AM,63.0,61.0,93,30.06,7.0,Calm,Calm,-,N/A,,Clear,0,2012-04-18 07:56:00
4:21 AM,62.6,62.6,100,30.06,1.8,Calm,Calm,-,N/A,,Partly Cloudy,0,2012-04-18 08:21:00
4:29 AM,62.6,60.8,94,30.06,0.5,Calm,Calm,-,N/A,,Unknown,0,2012-04-18 08:29:00
4:40 AM,62.6,60.8,94,30.06,0.5,Calm,Calm,-,N/A,,Unknown,0,2012-04-18 08:40:00
4:47 AM,62.6,60.8,94,30.05,1.0,Calm,Calm,-,N/A,,Unknown,0,2012-04-18 08:47:00
4:50 AM,62.6,60.8,94,30.05,2.0,Calm,Calm,-,N/A,,Scattered Clouds,0,2012-04-18 08:50:00
4:56 AM,64.0,61.0,90,30.05,8.0,Calm,Calm,-,N/A,,Partly Cloudy,0,2012-04-18 08:56:00
5:56 AM,63.0,61.0,93,30.07,6.0,Calm,Calm,-,N/A,,Clear,0,2012-04-18 09:56:00
6:28 AM,60.8,57.2,88,30.07,2.5,Calm,Calm,-,N/A,,Clear,0,2012-04-18 10:28:00
6:36 AM,60.8,59.0,94,30.07,5.0,Calm,Calm,-,N/A,Fog,Shallow Fog,0,2012-04-18 10:36:00
6:56 AM,66.0,64.0,93,30.08,5.0,SE,3.5,-,N/A,Fog,Shallow Fog,140,2012-04-18 10:56:00
7:56 AM,69.1,64.9,87,30.08,10.0,SSE,4.6,-,0.00,,Mostly Cloudy,160,2012-04-18 11:56:00
8:56 AM,72.0,66.0,81,30.09,10.0,South,4.6,-,N/A,,Overcast,180,2012-04-18 12:56:00
9:56 AM,-9999,-9999,N/A,30.10,10.0,South,8.1,16.1,N/A,,Scattered Clouds,190,2012-04-18 13:56:00
12:56 PM,77.0,66.0,69,30.06,10.0,SSE,8.1,-,N/A,,Mostly Cloudy,160,2012-04-18 16:56:00
2:56 PM,79.0,66.9,66,30.02,10.0,SSE,11.5,16.1,N/A,,Mostly Cloudy,150,2012-04-18 18:56:00
3:56 PM,77.0,66.0,69,30.00,10.0,South,6.9,-,N/A,,Mostly Cloudy,170,2012-04-18 19:56:00
4:56 PM,75.0,66.0,73,29.99,10.0,SSE,9.2,-,N/A,,Partly Cloudy,160,2012-04-18 20:56:00
5:56 PM,75.0,64.0,69,30.00,10.0,South,3.5,-,N/A,,Scattered Clouds,190,2012-04-18 21:56:00
6:56 PM,73.9,64.9,73,30.01,10.0,Calm,Calm,-,N/A,,Mostly Cloudy,0,2012-04-18 22:56:00
7:28 PM,73.4,64.4,73,30.02,10.0,West,5.8,-,N/A,,Overcast,270,2012-04-18 23:28:00
7:56 PM,71.1,64.9,81,30.02,6.0,WNW,3.5,-,0.02,Rain,Light Rain,290,2012-04-18 23:56:00
8:18 PM,69.8,64.4,83,30.02,10.0,Calm,Calm,-,0.00,Rain,Light Rain,0,2012-04-19 00:18:00
8:56 PM,69.1,64.9,87,30.04,10.0,NE,6.9,-,0.01,,Overcast,40,2012-04-19 00:56:00
9:56 PM,68.0,64.0,87,30.04,10.0,NNE,9.2,-,0.00,,Mostly Cloudy,30,2012-04-19 01:56:00
10:14 PM,66.2,64.4,94,30.04,10.0,NE,6.9,-,N/A,,Mostly Cloudy,50,2012-04-19 02:14:00
10:56 PM,66.9,63.0,87,30.04,10.0,NNE,9.2,-,N/A,,Mostly Cloudy,30,2012-04-19 02:56:00
11:10 PM,66.2,62.6,88,30.04,10.0,NNE,9.2,-,N/A,,Mostly Cloudy,30,2012-04-19 03:10:00
11:42 PM,66.2,62.6,88,30.04,10.0,NNE,5.8,-,N/A,,Overcast,20,2012-04-19 03:42:00
11:56 PM,66.0,63.0,90,30.04,10.0,NNE,6.9,-,N/A,,Overcast,30,2012-04-19 03:56:00